User: anonymous   Login
Location: Unspecified
(0.0000°N, 0.0000°E)
Time: 22:32:26
(UTC+00:00)
Language:

USA 285 - Orbit

View from above orbital plane
View from above orbital plane
View from above satellite
View from above satellite

Ground track
Ground track

The orbit is defined by the following mean orbital elements,

1 43445U          26140.22076066 +.00000000 +00000-0 +00000-0 0 00005
2 43445   7.0517  67.2815 0010980 168.4691   1.5319  1.02114162    01
Epoch (UTC): 20 May 2026 05:17:53
Eccentricity: 0.0010980
inclination: 7.0517°
perigee height: 35232 km
apogee height: 35324 km
right ascension of ascending node: 67.2815°
argument of perigee: 168.4691°
revolutions per day: 1.02114162
mean anomaly at epoch: 1.5319°

The dashed part of the orbit path shows where the satellite is in the earth's shadow,  

DLR